Regional Weather Roundup
Issued by NWS Albany, NY

Home | Current Version | Previous Version | Text Only | Print | Product List | Glossary On
Versions: 1 2 3 4 5 6 7 8 9 10 11 12 13 14 15 16 17 18 19 20 21 22 23 24 25 26 27
000
ASUS41 KALY 171310
RWRALY

NEW YORK STATE HOURLY WEATHER ROUNDUP
NATIONAL WEATHER SERVICE ALBANY NY
900 AM EDT THU APR 17 2014

NOTE: "FAIR" INDICATES FEW OR NO CLOUDS BELOW 12,000 FEET WITH NO
SIGNIFICANT WEATHER AND/OR NO OBSTRUCTIONS TO VISIBILITY.

NYZ032-033-038>043-046>054-057>066-NYZ062>081-171400-
EAST


CITY           SKY/WX    TMP DP  RH WIND       PRES   REMARKS
ALBANY         PTSUNNY   33  21  61 CALM      30.76R
GLENS FALLS      N/A    N/A N/A N/A NE6       30.76R
POUGHKEEPSIE   SUNNY     38  17  42 NE7       30.73R WCI  33
NEWBURGH       SUNNY     36  19  51 E14       30.72R WCI  27
MONTGOMERY     SUNNY     36  19  50 E12       30.72R WCI  28
WHITE PLAINS   SUNNY     37  16  42 E10       30.70R WCI  30
ISLIP          MOSUNNY   40  23  50 E15       30.69S WCI  32
NEW YORK CITY  MOSUNNY   39  21  48 NE15      30.72R WCI  31
CENTRAL PARK   SUNNY     38  20  48 NE13G22   30.74R WCI  30
$$

NYZ005>009-017-018-044>046-055-056-171400-
CENTRAL


CITY           SKY/WX    TMP DP  RH WIND       PRES   REMARKS
FULTON         SUNNY     33  18  53 SE9       30.65R WCI  25
SYRACUSE       PTSUNNY   33  20  58 E8        30.67R WCI  26
ROME           MOSUNNY   32  19  58 SE14      30.70R WCI  22
ELMIRA         MOSUNNY   34  19  54 NE3       30.62R
BINGHAMTON     MOSUNNY   31  18  58 SE12      30.60R WCI  22
MONTICELLO     SUNNY     30  19  64 E9G16     30.67R WCI  22
$$

NYZ026>034-041>043-171400-
NORTH


CITY           SKY/WX    TMP DP  RH WIND       PRES   REMARKS
WATERTOWN      SUNNY     35  19  52 VRB6      30.67S WCI  30
FORT DRUM      NOT AVBL
MASSENA        SUNNY     33  20  58 NE10      30.74S WCI  25
SARANAC LAKE   SUNNY     27  16  63 E5        30.63R WCI  22
PLATTSBURGH    SUNNY     31  19  61 CALM      30.77R
$$

NYZ001>004-010>016-019>021-171400-
WEST


CITY           SKY/WX    TMP DP  RH WIND       PRES   REMARKS
NIAGARA FALLS  PTSUNNY   36  19  50 E9        30.52F WCI  29
BUFFALO        PTSUNNY   37  18  46 SE12      30.52F WCI  29
DUNKIRK        SUNNY     41  18  39 SE9G20    30.48F
JAMESTOWN      SUNNY     36  16  44 S16G23    30.46S WCI  26
WELLSVILLE     MOSUNNY   32  14  47 S10       30.51S WCI  24
ROCHESTER      PTSUNNY   36  18  48 SE15      30.61S WCI  27
PENN YAN       SUNNY     34  19  54 SE10      30.61R WCI  26
$$

             KEY
       WCI = WIND CHILL INDEX
       VSB = VISIBILITY
       HX  = HEAT INDEX
$$



USA.gov is the U.S. government's official web portal to all federal, state and local government web resources and services.